AirNav   Air Wisconsin Up To $57,000 Bonus
 
 272 users online  

71K Westport Airport
Wichita, Kansas, USA

GOING TO WICHITA?


FAA INFORMATION EFFECTIVE 10 OCTOBER 2019

Location

FAA Identifier: 71K
Lat/Long: 37-38-51.7000N 097-23-01.3000W
37-38.861667N 097-23.021667W
37.6476944,-97.3836944
(estimated)
Elevation: 1290 ft. / 393 m (estimated)
Variation: 07E (1985)
From city: 3 miles SW of WICHITA, KS
Time zone: UTC -5 (UTC -6 during Standard Time)
Zip code: 67217

Airport Operations

Airport use: Open to the public
Activation date: 07/1947
Control tower: no
ARTCC: KANSAS CITY CENTER
FSS: WICHITA FLIGHT SERVICE STATION
NOTAMs facility: ICT (NOTAM-D service available)
Attendance: DAYLIGHT HOURS
Wind indicator: yes
Segmented circle: no

Airport Communications

CTAF: 122.9
WX ASOS at ICT (2.3 nm W): PHONE 316-945-8022
WX AWOS-3PT at BEC (8 nm E): 119.45 (316-515-7116)
WX ASOS at AAO (10 nm NE): 134.025 (316-636-2541)
WX AWOS-3PT at 3AU (15 nm E): 124.175 (316-733-6696)
WX AWOS-3 at 1K1 (15 nm NE): 118.3 (316-530-6004)
WX AWOS-3 at EGT (19 nm S): 118.875 (620-326-2470)

Nearby radio navigation aids

VOR radial/distance  VOR name  Freq  Var
ICTr115/11.2WICHITA VORTAC113.8007E
HUTr125/33.5HUTCHINSON VOR/DME116.8004E

 
NDB name  Hdg/Dist  Freq  Var  ID
PICHE035/5.433204EIC .. -.-.
NEWTON186/25.528106EEWK . .-- -.-

Airport Services

Fuel available: 100LL
Parking: hangars and tiedowns
Airframe service: MAJOR
Powerplant service: MAJOR
Bottled oxygen: NONE
Bulk oxygen: NONE

Runway Information

Runway 17/35

Dimensions: 2520 x 30 ft. / 768 x 9 m
Surface: asphalt, in good condition
RWY 17/35 HAS GRASS ENCROACHING ON RWY SIDES NUMEROUS SURFACE CRACKS
Weight bearing capacity: 
Single wheel: 3.0
RUNWAY 17  RUNWAY 35
Latitude: 37-39.069500N37-38.654167N
Longitude: 097-23.025833W097-23.016833W
Traffic pattern: leftright
Displaced threshold: 400 ft.no
Markings: basic, in good conditionbasic, in good condition
Runway end identifier lights: nono
Obstructions: 22 ft. bldg, 230 ft. from runway, 1:1 slope to clear
APCH RATIO 28:1 TO DSPLCD THR.
40 ft. pline, 1260 ft. from runway, 26:1 slope to clear
+8 FT FENCE 50 FT FROM THR; BOTH SIDES OF CNTRLN.

Airport Ownership and Management from official FAA records

Ownership: Privately-owned
Owner: EARL V. LONG
2558 S KESSLER
WICHITA, KS 67217
Phone 316-943-5510
Manager: EARL V. LONG
2558 S KESSLER
WICHITA, KS 67217
Phone 316-943-5510

Airport Operational Statistics

Aircraft based on the field: 14
Single engine airplanes: 12
Multi engine airplanes: 2
    
Aircraft operations: avg 72/month *
93% local general aviation
7% transient general aviation
* for 12-month period ending 19 July 2019

Additional Remarks

DEPS CTC WICHITA ATCT ON THE GROUND ON FREQ 125.7 FOR DEP INSTRUCTIONS. IF UNABLE - CONTACT ATCT ON FREQ 118.2 UPON DEP & REMAIN EAST OF THE FIELD UNTIL COMMUNICATIONS ARE ESTABLISHED.
FOR CD CTC WICHITA APCH AT 316-350-1520.

Instrument Procedures

There are no published instrument procedures at 71K.

Some nearby airports with instrument procedures:

KICT - Wichita Dwight D Eisenhower National Airport (2 nm W)
KIAB - Mc Connell Air Force Base (6 nm E)
KCEA - Cessna Aircraft Field Airport (6 nm E)
KBEC - Beech Factory Airport (8 nm E)
KAAO - Colonel James Jabara Airport (10 nm NE)
3AU - Augusta Municipal Airport (15 nm E)
1K1 - Lloyd Stearman Field Airport (15 nm NE)
KEGT - Wellington Municipal Airport (19 nm S)
 
Loc | Ops | Rwys | IFR | FBO | Links
Com | Nav | Svcs | Stats | Notes

Kansas City Aviation Department
 
Area around 71K (Westport Airport)
 
Road maps at: MapQuest Bing Google
 
Aerial photo
WARNING: Photo may not be current or correct
Aerial photo of 71K (Westport Airport)
Do you have a better or more recent aerial photo of Westport Airport that you would like to share? If so, please send us your photo.

 
Sectional chart

 
Airport distance calculator
Flying to Westport Airport? Find the distance to fly.

From to 71K

Sunrise and sunset
Times for 14-Oct-2019
 Local
(UTC-5)
 Zulu
(UTC)
Morning civil twilight07:1212:12
Sunrise07:3812:38
Sunset18:5323:53
Evening civil twilight19:2000:20

Current date and time
Zulu (UTC)  14-Oct-2019 09:48:23
Local (UTC-5)  14-Oct-2019 04:48:23
 
METAR
KICT 
2nm W 
140853Z 15004KT 10SM CLR 08/04 A2996 RMK AO2 SLP142 T00830044 58007 $
KIAB 
6nm E 
140856Z AUTO 10005KT 10SM CLR 10/05 A2997 RMK AO2 VIS 1 5/8 RWY01 SLP148 T01010045 55006 $
KBEC 
8nm E 
140935Z AUTO 00000KT 10SM CLR 07/05 A2997 RMK AO2 T00720045
KAAO 
10nm NE 
140854Z AUTO 07004KT CLR 05/04 A2997 RMK AO2 SLP150 T00500039 58005 $
K3AU 
15nm E 
140935Z AUTO 11004KT 10SM CLR 07/05 A2997 RMK AO2
K1K1 
15nm NE 
140935Z AUTO 07003KT 10SM CLR 05/04 A2998 RMK AO2 T00510041
TAF
KICT 
2nm W 
140520Z 1406/1506 00000KT P6SM SKC FM141400 16009KT P6SM SKC FM141700 16017G22KT P6SM SKC FM142000 17022G26KT P6SM SKC
NOTAMs
Click for the latest NOTAMs
NOTAMs are issued by the DoD/FAA and will open in a separate window not controlled by AirNav.

 

 
 

FBO, Fuel Providers, and Aircraft Ground Support

  
 Business Name 
 
 Contact 
 
 Services / Description 
 
Fuel Prices
 
Comments
  
Westport Ag Sales and Service 316-943-5510
no information available

If you are affiliated with Westport Ag Sales and Service and would like to show here your services, contact info, web link, logo, and more, click here
100LL
SS $5.10 
 Updated 07-Oct-2019
 
   write
SS=Self service
Update Fuel Prices
 

Would you like to see your business listed on this page?

 If your business provides an interesting product or service to pilots, flight crews, aircraft, or users of the Westport Airport, you should consider listing it here.  To start the listing process, click on the button below
 
Add a business
 

Other Pages about Westport Airport

Update a link
 
Copyright © AirNav, LLC. All rights reserved. Privacy Policy  Contact